Regional Weather Roundup
Issued by NWS

Home | Current Version | Previous Version | Graphics & Text | Print | Product List | Glossary On
Versions: 1 2 3 4 5 6 7 8 9 10 11 12 13 14 15 16 17 18 19 20 21 22 23 24 25 26 27 28 29 30 31 32 33 34 35 36 37 38 39 40 41 42 43 44 45 46 47 48 49 50
000
ASUS43 KMKX 230110
RWRWI

WISCONSIN REGIONAL WEATHER ROUNDUP
NATIONAL WEATHER SERVICE MILWAUKEE/SULLIVAN WI
800 PM CDT SUN APR 22 2018

NOTE: "FAIR" INDICATES FEW OR NO CLOUDS BELOW 12,000 FEET WITH NO
SIGNIFICANT WEATHER AND/OR OBSTRUCTIONS TO VISIBILITY.

WIZ001-002-006>008-014>016-023>028-230200-
NORTHWEST WISCONSIN

CITY           SKY/WX    TMP DP  RH WIND       PRES   REMARKS
SUPERIOR ARPT  FAIR      41  30  64 CALM      30.24S
ASHLAND        FAIR      39  26  59 NW5       30.25S
HAYWARD        FAIR      54  33  45 CALM      30.25S
SIREN          FAIR      56  31  38 CALM      30.25S
CUMBERLAND     FAIR      54  28  37 CALM      30.25S
RICE LAKE      FAIR      55  33  42 CALM      30.26S
CHETEK         FAIR      52  33  48 SE6       30.25S
LADYSMITH      FAIR      56  29  35 SE5       30.28S
EAU CLAIRE     FAIR      57  30  35 SE6       30.24S
MENOMONIE      FAIR      59  32  36 CALM      30.25S
NEW RICHMOND   FAIR      57  33  41 SE3       30.24S
OSCEOLA        FAIR      58  35  41 SW3       30.26S
$$

WIZ003>005-009-010-017-018-230200-
NORTH CENTRAL WISCONSIN

CITY           SKY/WX    TMP DP  RH WIND       PRES   REMARKS
MANITOWISH WTR FAIR      52  23  32 S3        30.25S
ARBOR VITAE    FAIR      53  24  31 CALM      30.25S
WOODRUFF       FAIR      53  24  31 CALM      30.25S
RHINELANDER    FAIR      53  23  31 S5        30.27F
EAGLE RIVER    FAIR      54  21  27 S5        30.26S
LAND O LAKES   FAIR      50  17  26 CALM      30.27S
PHILLIPS       FAIR      53  25  34 S5        30.26S
TOMAHAWK       FAIR      47  22  38 CALM      30.28S
MEDFORD        FAIR      49  30  47 S3        30.27S
MERRILL          N/A     52  17  24 SE3       30.29R
$$

WIZ029-030-035-036-043>047-230200-
CENTRAL WISCONSIN

CITY           SKY/WX    TMP DP  RH WIND       PRES   REMARKS
WAUSAU         FAIR      50  15  24 SE7       30.27S
MOSINEE        PTCLDY    48  16  27 SE5       30.30S
MARSHFIELD     FAIR      51  20  29 E6        30.27S
STEVENS POINT  FAIR      47  19  33 CALM      30.30S
WAUPACA        FAIR      52  27  38 CALM      30.30S
WAUTOMA        FAIR      52  29  41 NE3       30.29S
WISC RAPIDS    FAIR      51  18  27 E5        30.29S
CAMP DOUGLAS   FAIR      48  27  43 E6        30.26S
$$

WIZ011>013-019>022-031-037>040-048>050-230200-
NORTHEAST WISCONSIN

CITY           SKY/WX    TMP DP  RH WIND       PRES   REMARKS
ANTIGO         FAIR      44  25  47 S5        30.30S
SHAWANO        FAIR      46  27  47 CALM      30.30S
OCONTO         FAIR      44  27  51 CALM      30.31R
STURGEON BAY   NOT AVBL
GREEN BAY      FAIR      50  30  46 NE7       30.30S
MANITOWOC      FAIR      46  26  45 CALM      30.31F
APPLETON       CLEAR     54  21  28 CALM      30.28S
CLINTONVILLE   FAIR      51  24  34 CALM      30.30R
OSHKOSH        FAIR      50  32  50 CALM      30.29F
$$

WIZ032>034-041-042-053>061-230200-
SOUTHWEST WISCONSIN

CITY           SKY/WX    TMP DP  RH WIND       PRES   REMARKS
LA CROSSE      FAIR      57  28  33 SE5       30.24S
SPARTA         FAIR      55  24  29 CALM      30.27R
VIROQUA        FAIR      51  31  45 E6        30.25S
BOSCOBEL       FAIR      59  28  30 NE3       30.25R
PRAIRIE DU CHI FAIR      60  21  22 NE8       30.23S
PLATTEVILLE    FAIR      55  37  50 E8        30.24S
$$

WIZ056-057-062-063-064-067-068-230200-
SOUTH CENTRAL WISCONSIN

CITY           SKY/WX    TMP DP  RH WIND       PRES   REMARKS
REEDSBURG      FAIR      54  30  40 E6        30.27R
BARABOO/DELLS  FAIR      52  27  37 E5        30.28R
LONE ROCK      FAIR      55  33  43 E12       30.26R
MINERAL POINT  FAIR      57  30  35 E10       30.25R
MADISON        MOCLDY    50  29  44 E9        30.27S
MIDDLETON      FAIR      54  30  39 E8        30.27S
WATERTOWN      FAIR      49  33  54 CALM      30.28S
MONROE         FAIR      54  27  35 E7        30.25S
JANESVILLE     CLEAR     52  27  37 NE7       30.36R
$$

WIZ051-052-058>065-066-070>072-230200-
SOUTHEAST WISCONSIN

CITY           SKY/WX    TMP DP  RH WIND       PRES   REMARKS
MILWAUKEE      MOCLDY    43  28  55 NE8       30.30R
WAUKESHA       CLEAR     48  25  40 E5        30.29S
MILWAUKEE/TIMM CLEAR     48  19  32 E8        30.30R
RACINE         FAIR      41  28  60 NE8       30.30S
BURLINGTON     FAIR      52  25  35 E3        30.27S
KENOSHA        FAIR      46  27  47 NE9       30.28R
FOND DU LAC    FAIR      50  31  48 CALM      30.29S
SHEBOYGAN      FAIR      40  30  67 E3        30.30F
WEST BEND      FAIR      50  23  34 E8        30.29R
JUNEAU         FAIR      51  28  40 CALM      30.30R
$$

LSZ147-162-230200-
LAKE SUPERIOR

STATION/POSITION TIME  TEMP    WIND        PRES    WAVE
                       AIR SEA DIR/SP/G            HT/PER
                 (UTC) (F)     (DEG/KT/KT) (MB)    (FT/S)
DEVILS ISLAND    0000   49     150/  8/ 10 1024.4F
SAXON HARBOR     0030   39     320/  3/  3 1024.0S
$$

LMZ867-665-643>646-230200-
LAKE MICHIGAN

STATION/POSITION TIME  TEMP    WIND        PRES    WAVE
                       AIR SEA DIR/SP/G            HT/PER
                 (UTC) (F)     (DEG/KT/KT) (MB)    (FT/S)
NORTHPORT PIER   0040   42                 1026.1F
KEWAUNEE LAKESHO 0042   43        CALM     1025.7F
SHEBOYGAN LAKESH 0100   42      40/  6/  7 1026.7F
PORT WASHINGTON  0040   43      40/ 10/ 12 1027.1S
MILWAUKEE LAKESH 0050   42      30/ 10/ 11   N/A
KENOSHA   LAKESH 0000   43                 1025.1
$$

TC  - TEMPERATURE IN CELSIUS
VSB - VISIBILITY IN STATUTE MILES
WCI - WIND CHILL INDEX
HX  - HEAT INDEX





USA.gov is the U.S. government's official web portal to all federal, state and local government web resources and services.